Home > Time Zones > World Clock > Weather > France > Pau > Past weeks

Flag for France Weather past 2 weeks in Pau, France

Now
75 °F

Sunny.


Feels Like: 77 °F
Forecast: 64 / 72 °F
Wind: 2 mph from North

Location: Pau Airport

Current Time: Aug 28, 2014 at 12:16:29 PM

Latest Report: Aug 28, 2014 at 11:30 AM


Visibility: 10 mi

Pressure: 30.04 "Hg

Humidity: 69%

Dew point: 64 °F

Location of PauLocation

Historic Weather in Pau — Graph

°F

Pau temperature yesterday

Maximum temperature yesterday: 81 °F (at 3:30 PM)
Minimum temperature yesterday: 64 °F (at 7:30 AM)
Average temperature yesterday: 71 °F

Past Weeks' High & Low Weather Summary

 TemperatureHumidityPressure
High82 °F (Aug 25, 5:00 PM)100% (Aug 16, 7:00 AM)30.27 "Hg (Aug 16, 7:00 AM)
Low50 °F (Aug 23, 7:30 AM)42% (Aug 25, 4:30 PM)29.89 "Hg (Aug 25, 7:30 PM)
Average64 °F80%30.07 "Hg
* Reported Aug 13 11:00 AM — Aug 28 11:00 AM, Pau, Weather by CustomWeather, © 2014

Note: Actual official high and low records may vary slightly from our data, if they occured in-between our weather recording intervals... More about our weather records

Advertising

Pau weather history for previous 24 hours

 ConditionsComfort  
Time TempWeatherWind HumidityBarometerVisibility
11:00 AM
Aug 28
73 °FSunny.2 mph69%30.04 "Hg10 mi
10:00 AM72 °FSunny.No wind73%30.04 "Hg10 mi
9:30 AM68 °FSunny.1 mph78%30.01 "Hg10 mi
9:00 AM66 °FSunny.2 mph83%30.01 "Hg10 mi
8:30 AM64 °FSunny.2 mph88%30.01 "Hg10 mi
8:00 AM63 °FClear.3 mph88%30.01 "Hg10 mi
7:30 AM61 °FClear.5 mph94%30.01 "Hg10 mi
7:00 AM63 °FClear.6 mph94%30.01 "Hg10 mi
6:30 AM61 °FClear.2 mph100%30.01 "Hg10 mi
6:00 AM61 °FClear.2 mph94%30.01 "Hg10 mi
5:30 AM63 °FClear.3 mph94%30.01 "HgN/A
5:00 AM63 °FClear.3 mph94%30.01 "HgN/A
4:30 AM63 °FLight fog.3 mph94%30.01 "HgN/A
4:00 AM63 °FClear.2 mph94%30.01 "HgN/A
3:30 AM63 °FClear.2 mph94%30.01 "HgN/A
3:00 AM64 °FClear.No wind88%30.01 "HgN/A
2:30 AM64 °FClear.No wind94%30.01 "HgN/A
2:00 AM66 °FClear.No wind88%30.04 "HgN/A
1:30 AM68 °FClear.No wind83%30.01 "HgN/A
1:00 AM68 °FClear.1 mph88%30.01 "HgN/A
12:30 AM68 °FClear.2 mph88%30.01 "HgN/A
12:00 AM68 °FClear.3 mph88%30.01 "HgN/A
11:30 PM
Aug 27
68 °FClear.5 mph88%30.01 "HgN/A
11:00 PM70 °FClear.6 mph78%29.98 "HgN/A
10:30 PM70 °FClear.6 mph83%30.01 "HgN/A
10:00 PM72 °FClear.8 mph78%30.01 "HgN/A
9:30 PM72 °FClear.6 mph78%30.01 "HgN/A
9:00 PM73 °FSunny.3 mph78%30.01 "Hg10 mi
8:30 PM75 °FSunny.5 mph74%30.01 "Hg10 mi
8:00 PM79 °FPassing clouds.No wind65%30.01 "HgN/A
7:30 PM79 °FPassing clouds.2 mph65%30.01 "HgN/A
6:30 PM81 °FPassing clouds.6 mph62%30.01 "HgN/A
6:00 PM81 °FPassing clouds.3 mph62%30.01 "HgN/A
4:30 PM81 °FPassing clouds.5 mph62%30.01 "HgN/A
4:00 PM79 °FPassing clouds.5 mph61%30.04 "HgN/A
3:30 PM81 °FPassing clouds.5 mph62%30.04 "HgN/A
3:00 PM79 °FPassing clouds.5 mph61%30.04 "HgN/A
2:30 PM79 °FPassing clouds.6 mph65%30.04 "HgN/A
2:00 PM77 °FPassing clouds.5 mph69%30.04 "HgN/A
1:30 PM77 °FPassing clouds.5 mph69%30.04 "HgN/A
1:00 PM75 °FPassing clouds.3 mph74%30.04 "HgN/A
12:30 PM75 °FPassing clouds.2 mph74%30.07 "HgN/A
12:00 PM73 °FPassing clouds.2 mph74%30.07 "HgN/A
Weather by CustomWeather, © 2014

See weather overviewHow to use our weather pages